[[{"header":{"parameterUnit":"m.s-1","parameterCategory":1,"la1":30.2991,"la2":30.254,"lo1":-89.0895,"lo2":-89.0444,"dy":0.0017,"dx":0.0017,"nx":28,"ny":28,"refTime":"2025-02-07T09:00:00:Z","depth":0,"parameterNumber":2,"parameterNumberName":"U-component_of_WINDS"},"data":[0,0,0,0,0,0,0,0,0,0,0,0,0,0,0,0,0,0,0,0,0,0,0,0,0,0,0,0,0,0,0,0,0,0,0,0,0,0,0,0,0,0,0,0,0,0,0,0,0,0,0,0,0,0,0,0,0,0,-1.3392,-1.3392,0,-1.3391,-1.3391,-1.3391,-1.3359,-1.3358,-1.3357,-1.3356,-1.3357,-1.3358,-1.3358,0,0,0,0,0,0,0,0,0,0,0,0,0,-1.3364,-1.3365,-1.3392,-1.3392,-1.3392,-1.3391,-1.3391,-1.3391,-1.3359,-1.3358,-1.3357,-1.3356,-1.3357,-1.3357,-1.3358,0,0,0,0,0,0,0,0,0,0,0,0,0,-1.3371,-1.3365,-1.3392,-1.3375,-1.3374,-1.3391,-1.3391,-1.3391,-1.3359,-1.3358,-1.3357,-1.3355,-1.3356,-1.3357,-1.3359,-1.3392,0,0,-1.3362,-1.3363,0,0,0,0,0,0,0,0,-1.3371,-1.3372,-1.3378,-1.3376,-1.3375,-1.3374,-1.3382,-1.3391,-1.3359,-1.3365,-1.3356,-1.3355,-1.3364,-1.3364,-1.3367,-1.3392,-1.3392,-1.3362,-1.3363,-1.3364,-1.3364,0,0,0,0,0,0,0,-1.3371,-1.3372,-1.3391,-1.3378,-1.3376,-1.3368,-1.3368,-1.3384,-1.3371,-1.3364,-1.3362,-1.3362,-1.3362,-1.3366,-1.3367,-1.3392,-1.3362,-1.3363,-1.3364,-1.3365,-1.3443,-1.3444,0,0,0,0,0,0,-1.3372,-1.3372,-1.3391,-1.3391,-1.337,-1.337,-1.3369,-1.3375,-1.3371,-1.3369,-1.3363,-1.3361,-1.3364,-1.3365,-1.3367,-1.3404,-1.3364,-1.3365,-1.3366,-1.3442,-1.3443,-1.3445,0,0,0,0,0,0,-1.3372,-1.3374,-1.3391,-1.3381,-1.3383,-1.3372,-1.3379,-1.3376,-1.3379,-1.337,-1.3368,-1.3369,-1.3363,-1.3365,-1.3385,-1.3404,-1.3365,-1.3366,-1.344,-1.3442,-1.3444,-1.3481,0,0,0,0,0,0,-1.3371,-1.3374,-1.3387,-1.3382,-1.3383,-1.341,-1.338,-1.3377,-1.3381,-1.3378,-1.3375,-1.3373,-1.3362,-1.3384,-1.3387,-1.3405,-1.3367,-1.3439,-1.3441,-1.3444,-1.3478,-1.3484,-1.3489,0,0,0,0,0,-1.337,-1.3397,-1.3388,-1.339,-1.3399,-1.3412,-1.3413,-1.3399,-1.3383,-1.3395,-1.339,-1.3373,-1.3402,-1.3386,-1.3389,-1.3408,-1.3437,-1.344,-1.3443,-1.3475,-1.3482,-1.3489,0,0,0,0,0,0,-1.3406,-1.3397,-1.3385,-1.3412,-1.3413,-1.3406,-1.3421,-1.3408,-1.3413,-1.341,-1.3394,-1.3393,-1.3416,-1.3414,-1.3397,-1.3439,-1.3417,-1.342,-1.344,-1.3447,-1.3452,-1.3452,-1.3368,0,0,0,0,0,-1.3416,-1.3427,-1.3419,-1.3443,-1.3444,-1.3433,-1.3438,-1.3427,-1.3428,-1.3428,-1.3424,-1.3425,-1.3434,-1.344,-1.3448,-1.3478,-1.3476,-1.3492,-1.3497,-1.3502,-1.3505,-1.352,-1.3526,-1.3455,-1.3455,-1.3455,0,0,-1.3439,-1.3435,-1.3443,-1.345,-1.3449,-1.3461,-1.3433,-1.3447,-1.3455,-1.343,-1.3449,-1.3446,-1.3446,-1.3471,-1.3482,-1.347,-1.3525,-1.3506,-1.351,-1.351,-1.3524,-1.353,-1.3536,-1.3457,-1.3457,-1.3456,0,0,-1.3485,-1.3484,-1.3503,-1.3503,-1.3502,-1.3495,-1.3499,-1.3495,-1.3492,-1.351,-1.3492,-1.3502,-1.3518,-1.3518,-1.3521,-1.3567,-1.3552,-1.3571,-1.3599,-1.3613,-1.3619,-1.3624,-1.364,-1.3645,-1.3574,-1.3574,-1.3574,0,-1.3513,-1.353,-1.3515,-1.353,-1.3533,-1.351,-1.353,-1.3531,-1.3533,-1.3536,-1.3522,-1.3542,-1.354,-1.3565,-1.3576,-1.3579,-1.3583,-1.357,-1.3619,-1.3624,-1.3628,-1.3643,-1.3649,-1.3576,-1.3576,-1.3576,-1.3575,0,-1.3564,-1.3576,-1.3591,-1.3593,-1.3598,-1.3616,-1.3603,-1.361,-1.36,-1.3593,-1.3612,-1.361,-1.3617,-1.3622,-1.3612,-1.3645,-1.3637,-1.3622,-1.3598,-1.3638,-1.3651,-1.3657,-1.3579,-1.3578,-1.3578,-1.3577,0,0,-1.3633,-1.3626,-1.3631,-1.3632,-1.3629,-1.3638,-1.3654,-1.366,-1.3666,-1.3668,-1.3681,-1.3695,-1.3681,-1.3684,-1.3673,-1.3686,-1.3722,-1.3669,-1.3669,-1.3678,-1.3757,-1.3768,-1.3775,-1.3712,-1.3713,-1.3714,-1.3757,0,-1.3677,-1.3703,-1.369,-1.3718,-1.3728,-1.3707,-1.3721,-1.3721,-1.3715,-1.3723,-1.3717,-1.3727,-1.3708,-1.3709,-1.3721,-1.3715,-1.3737,-1.3712,-1.3724,-1.3724,-1.3723,-1.3782,-1.3794,-1.3834,-1.3762,-1.3763,-1.3764,0,-1.3732,-1.3736,-1.3765,-1.3759,-1.3763,-1.3776,-1.378,-1.3788,-1.3787,-1.3782,-1.3785,-1.3772,-1.3787,-1.3765,-1.3785,-1.3768,-1.3772,-1.377,-1.3771,-1.3771,-1.3746,-1.3783,-1.3846,-1.3852,-1.3772,-1.3771,-1.3771,0,-1.3778,-1.3791,-1.3809,-1.381,-1.3805,-1.3814,-1.3812,-1.381,-1.3814,-1.3818,-1.3821,-1.3826,-1.3829,-1.3834,-1.3823,-1.3807,-1.3845,-1.3821,-1.3841,-1.3841,-1.3849,-1.3848,-1.3913,-1.3853,-1.3853,-1.3853,-1.3853,0,-1.3829,-1.3847,-1.3829,-1.3841,-1.386,-1.3845,-1.3865,-1.3861,-1.386,-1.387,-1.3852,-1.3862,-1.3847,-1.3855,-1.3847,-1.3864,-1.3866,-1.3862,-1.386,-1.3864,-1.3864,-1.3865,-1.3862,-1.3854,-1.3854,-1.3854,-1.3853,0,-1.3883,-1.3872,-1.3891,-1.3884,-1.3883,-1.3897,-1.3891,-1.3902,-1.3895,-1.3908,-1.391,-1.3899,-1.3908,-1.3898,-1.3906,-1.39,-1.3924,-1.3918,-1.3924,-1.3922,-1.3941,-1.3939,-1.4009,-1.4017,-1.3953,-1.3953,-1.3954,0,-1.3916,-1.3929,-1.3923,-1.3928,-1.3927,-1.3936,-1.394,-1.3926,-1.3931,-1.3931,-1.3941,-1.3948,-1.3953,-1.3969,-1.3962,-1.3968,-1.3961,-1.3985,-1.3962,-1.3965,-1.396,-1.3959,-1.396,-1.3989,-1.399,-1.3991,-1.3991,0,-1.3975,-1.3968,-1.3974,-1.3978,-1.3983,-1.3986,-1.3988,-1.3993,-1.3978,-1.3984,-1.3993,-1.3997,-1.4005,-1.4012,-1.4016,-1.4014,-1.4,-1.3999,-1.4003,-1.4007,-1.401,-1.4008,-1.3936,-1.3997,-1.3997,-1.3996,-1.3996,-1.3996,-1.4019,-1.4029,-1.4026,-1.4033,-1.4033,-1.4034,-1.4043,-1.4037,-1.4044,-1.4049,-1.404,-1.4051,-1.4049,-1.4053,-1.4053,-1.4061,-1.4051,-1.4058,-1.406,-1.4061,-1.4064,-1.4009,-1.4062,-1.4062,-1.4062,-1.4062,-1.4061,0,-1.4076,-1.4072,-1.4079,-1.4081,-1.4087,-1.4073,-1.4073,-1.4079,-1.4088,-1.4088,-1.4093,-1.4103,-1.4109,-1.4103,-1.4109,-1.4116,-1.411,-1.4118,-1.4117,-1.4117,-1.4073,-1.4068,-1.4123,-1.4123,-1.4123,-1.4123,-1.4123,-1.4123,-1.4106,-1.4122,-1.4116,-1.4132,-1.4129,-1.4138,-1.414,-1.4141,-1.414,-1.4152,-1.4157,-1.4153,-1.415,-1.4155,-1.4161,-1.4158,-1.4161,-1.4171,-1.4167,-1.4126,-1.412,-1.4114,-1.4109,-1.4172,-1.4172,-1.421,-1.421,-1.4211]},{"header":{"parameterUnit":"m.s-1","parameterCategory":1,"la1":30.2991,"la2":30.254,"lo1":-89.0895,"lo2":-89.0444,"dy":0.0017,"dx":0.0017,"nx":28,"ny":28,"refTime":"2025-02-07T09:00:00:Z","depth":0,"parameterNumber":3,"parameterNumberName":"V-component_of_WINDS"},"data":[0,0,0,0,0,0,0,0,0,0,0,0,0,0,0,0,0,0,0,0,0,0,0,0,0,0,0,0,0,0,0,0,0,0,0,0,0,0,0,0,0,0,0,0,0,0,0,0,0,0,0,0,0,0,0,0,0,0,2.8677,2.8678,0,2.8814,2.8816,2.8817,2.8851,2.885,2.8849,2.8848,2.8989,2.8993,2.8998,0,0,0,0,0,0,0,0,0,0,0,0,0,2.8444,2.8448,2.8677,2.8679,2.868,2.8814,2.8816,2.8818,2.8851,2.885,2.8848,2.8847,2.8987,2.8993,2.8998,0,0,0,0,0,0,0,0,0,0,0,0,0,2.856,2.845,2.8677,2.8713,2.8717,2.8814,2.8816,2.8818,2.8851,2.885,2.8848,2.8847,2.8985,2.8992,2.8999,2.9069,0,0,2.902,2.9023,0,0,0,0,0,0,0,0,2.8553,2.8568,2.8706,2.8711,2.8716,2.8814,2.8786,2.8902,2.8851,2.88,2.8848,2.8846,2.8932,2.8943,2.8972,2.9075,2.9082,2.9021,2.9025,2.9028,2.903,0,0,0,0,0,0,0,2.8545,2.8563,2.8731,2.8708,2.8714,2.8723,2.8738,2.8808,2.8872,2.8805,2.8807,2.8823,2.8934,2.8965,2.8975,2.9084,2.902,2.9027,2.9031,2.9034,2.9254,2.9256,0,0,0,0,0,0,2.8531,2.8556,2.8727,2.8735,2.8629,2.8728,2.8745,2.8784,2.8871,2.8883,2.8824,2.8824,2.8954,2.8967,2.898,2.9071,2.9028,2.9034,2.9038,2.9253,2.9255,2.9257,0,0,0,0,0,0,2.8526,2.8546,2.8721,2.8646,2.8669,2.8733,2.8777,2.8787,2.8818,2.8886,2.8898,2.8844,2.8953,2.8971,2.9047,2.9076,2.9037,2.9044,2.9251,2.9253,2.9256,2.925,0,0,0,0,0,0,2.8519,2.8544,2.8571,2.8647,2.8673,2.8786,2.8779,2.8791,2.883,2.8831,2.8908,2.8919,2.8954,2.9037,2.9054,2.9085,2.9049,2.9249,2.9252,2.9255,2.9248,2.9252,2.9255,0,0,0,0,0,2.851,2.8563,2.8572,2.8592,2.8708,2.8787,2.8803,2.8841,2.8832,2.886,2.8904,2.8917,2.9069,2.9044,2.9064,2.9097,2.9247,2.9251,2.9255,2.9246,2.9251,2.9255,0,0,0,0,0,0,2.8488,2.8574,2.8584,2.8663,2.8718,2.8793,2.8829,2.8845,2.8903,2.8902,2.8947,2.8964,2.9039,2.9075,2.9046,2.9171,2.9158,2.9166,2.9145,2.915,2.9154,2.9145,2.9055,0,0,0,0,0,2.8492,2.8549,2.8621,2.8683,2.871,2.8765,2.8801,2.8826,2.8884,2.8908,2.8957,2.9013,2.9075,2.9114,2.9173,2.9252,2.9271,2.9285,2.9289,2.9291,2.9299,2.9346,2.9354,2.927,2.9269,2.9269,0,0,2.8502,2.8556,2.8589,2.868,2.8726,2.8785,2.8784,2.8846,2.889,2.8917,2.8994,2.9031,2.9097,2.9176,2.9213,2.9209,2.9326,2.9296,2.9298,2.9304,2.9351,2.9359,2.9366,2.9272,2.9272,2.9271,0,0,2.855,2.8595,2.8654,2.87,2.8768,2.8805,2.8818,2.8891,2.8918,2.8995,2.9017,2.907,2.9174,2.9221,2.9258,2.9325,2.934,2.9343,2.9364,2.9409,2.9416,2.9422,2.9449,2.9457,2.9349,2.9349,2.9349,0,2.8554,2.8643,2.8682,2.8744,2.8784,2.8811,2.8871,2.8913,2.8998,2.9026,2.9019,2.9151,2.9197,2.9289,2.9305,2.9333,2.9352,2.9336,2.9412,2.9418,2.9425,2.9451,2.946,2.9349,2.9349,2.9349,2.9349,0,2.8646,2.8707,2.8746,2.8828,2.8872,2.8933,2.8982,2.9022,2.9043,2.908,2.9159,2.9215,2.9288,2.9311,2.9331,2.9406,2.9402,2.9402,2.9391,2.9432,2.9458,2.9468,2.9349,2.9349,2.9349,2.9349,0,0,2.8686,2.8788,2.8802,2.8841,2.8919,2.8968,2.9029,2.9101,2.9136,2.9193,2.9247,2.9334,2.9336,2.9379,2.9405,2.9444,2.9497,2.9441,2.9443,2.9452,2.9586,2.9587,2.9598,2.9506,2.9508,2.951,2.9582,0,2.8746,2.8858,2.8895,2.8989,2.9048,2.9074,2.9128,2.9182,2.9218,2.9273,2.9313,2.9376,2.9372,2.9398,2.9438,2.9482,2.9525,2.9477,2.956,2.9562,2.9546,2.9611,2.9612,2.9678,2.9592,2.9593,2.9594,0,2.8832,2.8892,2.8991,2.9064,2.909,2.9138,2.9207,2.9259,2.9321,2.9345,2.9392,2.9416,2.9482,2.9465,2.9559,2.9525,2.9561,2.9588,2.9591,2.9603,2.9583,2.9628,2.9699,2.971,2.961,2.9609,2.9607,0,2.8855,2.896,2.9034,2.9065,2.9151,2.9184,2.9222,2.9282,2.9323,2.9383,2.9411,2.9478,2.9515,2.9567,2.9608,2.9591,2.9699,2.9684,2.9723,2.9722,2.9747,2.9745,2.9828,2.9764,2.9764,2.9764,2.9763,0,2.8921,2.8982,2.9046,2.9092,2.9161,2.9203,2.927,2.9309,2.9362,2.9417,2.9442,2.9493,2.9543,2.96,2.9632,2.9707,2.9722,2.9745,2.9753,2.9745,2.9742,2.9771,2.9769,2.9766,2.9766,2.9765,2.9765,0,2.896,2.9005,2.9088,2.9162,2.9182,2.923,2.9294,2.934,2.9376,2.9445,2.9464,2.9522,2.9591,2.9636,2.9724,2.9745,2.9828,2.9833,2.9807,2.9812,2.9849,2.9846,2.9956,2.9974,2.9894,2.9895,2.9896,0,2.9001,2.9048,2.9128,2.9166,2.9204,2.9265,2.9307,2.9349,2.9393,2.9468,2.9505,2.9576,2.9635,2.9744,2.9795,2.9862,2.9872,2.9905,2.9882,2.9873,2.9877,2.9875,2.9881,2.991,2.9911,2.9911,2.9912,0,2.9069,2.9089,2.9149,2.9218,2.9268,2.9323,2.9379,2.9409,2.9461,2.9509,2.958,2.9626,2.9716,2.9787,2.9859,2.9898,2.9915,2.9918,2.9932,2.9925,2.9909,2.9922,2.9821,2.9916,2.9916,2.9916,2.9915,2.9915,2.9113,2.9158,2.9221,2.9288,2.9334,2.9386,2.9433,2.9476,2.9536,2.9613,2.9634,2.9709,2.9771,2.987,2.991,2.997,2.9967,2.9985,2.999,2.9995,2.9997,2.9897,2.9983,2.9983,2.9983,2.9983,2.9983,0,2.9186,2.9228,2.9289,2.9367,2.9419,2.9429,2.9491,2.9535,2.9601,2.9657,2.9715,2.9798,2.9866,2.9922,2.9993,3.0031,3.004,3.0048,3.0048,3.0057,2.9994,2.9978,3.0039,3.0039,3.0039,3.0039,3.0039,3.0039,2.9231,2.9307,2.9335,2.9435,2.9477,2.9551,2.9586,2.9635,2.968,2.9772,2.9829,2.9864,2.9921,2.9997,3.0061,3.0076,3.0102,3.0109,3.0126,3.0067,3.0061,3.0055,3.004,3.0114,3.0114,3.0184,3.0185,3.0185]}]]